Zurück zum Katalog

STARLINK-2494

AktivKommunikationVLEO
NORAD 48487·PAYLOAD·🇺🇸 United States

Gestartet May 9, 2021 von Cape Canaveral Space Force Station

Loading…

Nächste Überflüge (nächste 24 Stunden)

TLE

AktuellSource: CelesTrak SupGP

Epoche: Sep 15, 2026, 01:01 UTC

1 48487C 21040BM  26258.04284722 -.00031471  00000+0 -10119-2 0  2589
2 48487  53.1606  32.8310 0001127  83.8826 228.0590 15.31722388    14

Verfolge STARLINK-2494 in Echtzeit mit AllMySat

Download on the App Store